Year,Month,Day,Hour,Minute,Value (Times are PST for temperature in C)
2009,04,04,00,00,2.10
2009,04,04,00,01,2.10
2009,04,04,00,02,2.00
2009,04,04,00,03,2.00
2009,04,04,00,04,2.00
2009,04,04,00,05,1.90
2009,04,04,00,06,1.90
2009,04,04,00,07,1.90
2009,04,04,00,08,1.80
2009,04,04,00,09,1.80
2009,04,04,00,10,1.80
2009,04,04,00,11,1.80
2009,04,04,00,12,1.80
2009,04,04,00,13,1.80
2009,04,04,00,14,1.80
2009,04,04,00,15,1.80
2009,04,04,00,16,1.80
2009,04,04,00,17,1.80
2009,04,04,00,18,1.80
2009,04,04,00,19,1.80
2009,04,04,00,20,1.80
2009,04,04,00,21,1.70
2009,04,04,00,22,1.70
2009,04,04,00,23,1.70
2009,04,04,00,24,1.70
2009,04,04,00,25,1.60
2009,04,04,00,26,1.60
2009,04,04,00,27,1.60
2009,04,04,00,28,1.60
2009,04,04,00,29,1.60
2009,04,04,00,30,1.60
2009,04,04,00,31,1.60
2009,04,04,00,32,1.60
2009,04,04,00,33,1.60
2009,04,04,00,34,1.60
2009,04,04,00,35,1.70
2009,04,04,00,36,1.70
2009,04,04,00,37,1.70
2009,04,04,00,38,1.70
2009,04,04,00,39,1.70
2009,04,04,00,40,1.70
2009,04,04,00,41,1.70
2009,04,04,00,42,1.60
2009,04,04,00,43,1.60
2009,04,04,00,44,1.60
2009,04,04,00,45,1.60
2009,04,04,00,46,1.60
2009,04,04,00,47,1.60
2009,04,04,00,48,1.60
2009,04,04,00,49,1.50
2009,04,04,00,50,1.50
2009,04,04,00,51,1.50
2009,04,04,00,52,1.50
2009,04,04,00,53,1.40
2009,04,04,00,54,1.40
2009,04,04,00,55,1.40
2009,04,04,00,56,1.40
2009,04,04,00,57,1.30
2009,04,04,00,58,1.30
2009,04,04,00,59,1.30
2009,04,04,01,00,1.30
2009,04,04,01,01,1.30
2009,04,04,01,02,1.30
2009,04,04,01,03,1.30
2009,04,04,01,04,1.30
2009,04,04,01,05,1.30
2009,04,04,01,06,1.30
2009,04,04,01,07,1.40
2009,04,04,01,08,1.40
2009,04,04,01,09,1.40
2009,04,04,01,10,1.40
2009,04,04,01,11,1.40
2009,04,04,01,12,1.40
2009,04,04,01,13,1.40
2009,04,04,01,14,1.50
2009,04,04,01,15,1.50
2009,04,04,01,16,1.50
2009,04,04,01,17,1.50
2009,04,04,01,18,1.50
2009,04,04,01,19,1.50
2009,04,04,01,20,1.50
2009,04,04,01,21,1.50
2009,04,04,01,22,1.50
2009,04,04,01,23,1.40
2009,04,04,01,24,1.40
2009,04,04,01,25,1.30
2009,04,04,01,26,1.30
2009,04,04,01,27,1.30
2009,04,04,01,28,1.30
2009,04,04,01,29,1.20
2009,04,04,01,30,1.20
2009,04,04,01,31,1.20
2009,04,04,01,32,1.10
2009,04,04,01,33,1.10
2009,04,04,01,34,1.10
2009,04,04,01,35,1.00
2009,04,04,01,36,1.00
2009,04,04,01,37,1.00
2009,04,04,01,38,0.90
2009,04,04,01,39,0.90
2009,04,04,01,40,0.90
2009,04,04,01,41,0.90
2009,04,04,01,42,0.80
2009,04,04,01,43,0.80
2009,04,04,01,44,0.80
2009,04,04,01,45,0.80
2009,04,04,01,46,0.80
2009,04,04,01,47,0.80
2009,04,04,01,48,0.80
2009,04,04,01,49,0.70
2009,04,04,01,50,0.70
2009,04,04,01,51,0.70
2009,04,04,01,52,0.70
2009,04,04,01,53,0.60
2009,04,04,01,54,0.60
2009,04,04,01,55,0.60
2009,04,04,01,56,0.60
2009,04,04,01,57,0.50
2009,04,04,01,58,0.50
2009,04,04,01,59,0.50
2009,04,04,02,00,0.50
2009,04,04,02,01,0.50
2009,04,04,02,02,0.50
2009,04,04,02,03,0.60
2009,04,04,02,04,0.60
2009,04,04,02,05,0.70
2009,04,04,02,06,0.70
2009,04,04,02,07,0.80
2009,04,04,02,08,0.80
2009,04,04,02,09,0.80
2009,04,04,02,10,0.80
2009,04,04,02,11,0.80
2009,04,04,02,12,0.80
2009,04,04,02,13,0.80
2009,04,04,02,14,0.80
2009,04,04,02,15,0.80
2009,04,04,02,16,0.80
2009,04,04,02,17,0.70
2009,04,04,02,18,0.70
2009,04,04,02,19,0.70
2009,04,04,02,20,0.60
2009,04,04,02,21,0.60
2009,04,04,02,22,0.60
2009,04,04,02,23,0.50
2009,04,04,02,24,0.50
2009,04,04,02,25,0.50
2009,04,04,02,26,0.40
2009,04,04,02,27,0.40
2009,04,04,02,28,0.40
2009,04,04,02,29,0.40
2009,04,04,02,30,0.40
2009,04,04,02,31,0.30
2009,04,04,02,32,0.30
2009,04,04,02,33,0.30
2009,04,04,02,34,0.20
2009,04,04,02,35,0.20
2009,04,04,02,36,0.20
2009,04,04,02,37,0.10
2009,04,04,02,38,0.10
2009,04,04,02,39,0.10
2009,04,04,02,40,0.10
2009,04,04,02,41,0.10
2009,04,04,02,42,0.10
2009,04,04,02,43,0.10
2009,04,04,02,44,0.10
2009,04,04,02,45,0.10
2009,04,04,02,46,0.10
2009,04,04,02,47,0.10
2009,04,04,02,48,0.10
2009,04,04,02,49,0.10
2009,04,04,02,50,0.10
2009,04,04,02,51,0.10
2009,04,04,02,52,0.10
2009,04,04,02,53,0.10
2009,04,04,02,54,0.10
2009,04,04,02,55,0.20
2009,04,04,02,56,0.20
2009,04,04,02,57,0.30
2009,04,04,02,58,0.40
2009,04,04,02,59,0.40
2009,04,04,03,00,0.50
2009,04,04,03,01,0.50
2009,04,04,03,02,0.50
2009,04,04,03,03,0.50
2009,04,04,03,04,0.50
2009,04,04,03,05,0.50
2009,04,04,03,06,0.50
2009,04,04,03,07,0.50
2009,04,04,03,08,0.50
2009,04,04,03,09,0.50
2009,04,04,03,10,0.40
2009,04,04,03,11,0.40
2009,04,04,03,12,0.40
2009,04,04,03,13,0.40
2009,04,04,03,14,0.40
2009,04,04,03,15,0.40
2009,04,04,03,16,0.40
2009,04,04,03,17,0.50
2009,04,04,03,18,0.50
2009,04,04,03,19,0.50
2009,04,04,03,20,0.60
2009,04,04,03,21,0.60
2009,04,04,03,22,0.60
2009,04,04,03,23,0.60
2009,04,04,03,24,0.60
2009,04,04,03,25,0.60
2009,04,04,03,26,0.50
2009,04,04,03,27,0.50
2009,04,04,03,28,0.50
2009,04,04,03,29,0.50
2009,04,04,03,30,0.40
2009,04,04,03,31,0.40
2009,04,04,03,32,0.40
2009,04,04,03,33,0.40
2009,04,04,03,34,0.40
2009,04,04,03,35,0.40
2009,04,04,03,36,0.40
2009,04,04,03,37,0.40
2009,04,04,03,38,0.40
2009,04,04,03,39,0.40
2009,04,04,03,40,0.40
2009,04,04,03,41,0.40
2009,04,04,03,42,0.40
2009,04,04,03,43,0.40
2009,04,04,03,44,0.40
2009,04,04,03,45,0.40
2009,04,04,03,46,0.40
2009,04,04,03,47,0.40
2009,04,04,03,48,0.40
2009,04,04,03,49,0.40
2009,04,04,03,50,0.30
2009,04,04,03,51,0.30
2009,04,04,03,52,0.30
2009,04,04,03,53,0.30
2009,04,04,03,54,0.30
2009,04,04,03,55,0.30
2009,04,04,03,56,0.30
2009,04,04,03,57,0.30
2009,04,04,03,58,0.30
2009,04,04,03,59,0.30
2009,04,04,04,00,0.30
2009,04,04,04,01,0.30
2009,04,04,04,02,0.20
2009,04,04,04,03,0.20
2009,04,04,04,04,0.20
2009,04,04,04,05,0.20
2009,04,04,04,06,0.10
2009,04,04,04,07,0.10
2009,04,04,04,08,0.10
2009,04,04,04,09,0.10
2009,04,04,04,10,0.10
2009,04,04,04,11,0.10
2009,04,04,04,12,0.10
2009,04,04,04,13,0.10
2009,04,04,04,14,0.10
2009,04,04,04,15,0.10
2009,04,04,04,16,0.10
2009,04,04,04,17,0.10
2009,04,04,04,18,0.00
2009,04,04,04,19,-0.10
2009,04,04,04,20,-0.10
2009,04,04,04,21,-0.10
2009,04,04,04,22,-0.10
2009,04,04,04,23,-0.10
2009,04,04,04,24,-0.10
2009,04,04,04,25,-0.10
2009,04,04,04,26,-0.10
2009,04,04,04,27,-0.20
2009,04,04,04,28,-0.20
2009,04,04,04,29,-0.20
2009,04,04,04,30,-0.20
2009,04,04,04,31,-0.20
2009,04,04,04,32,-0.30
2009,04,04,04,33,-0.30
2009,04,04,04,34,-0.30
2009,04,04,04,35,-0.30
2009,04,04,04,36,-0.20
2009,04,04,04,37,-0.20
2009,04,04,04,38,-0.20
2009,04,04,04,39,-0.20
2009,04,04,04,40,-0.20
2009,04,04,04,41,-0.20
2009,04,04,04,42,-0.20
2009,04,04,04,43,-0.20
2009,04,04,04,44,-0.20
2009,04,04,04,45,-0.20
2009,04,04,04,46,-0.20
2009,04,04,04,47,-0.20
2009,04,04,04,48,-0.20
2009,04,04,04,49,-0.20
2009,04,04,04,50,-0.10
2009,04,04,04,51,-0.10
2009,04,04,04,52,-0.10
2009,04,04,04,53,-0.10
2009,04,04,04,54,-0.10
2009,04,04,04,55,-0.10
2009,04,04,04,56,-0.10
2009,04,04,04,57,-0.10
2009,04,04,04,58,-0.10
2009,04,04,04,59,-0.10
2009,04,04,05,00,-0.10
2009,04,04,05,01,-0.10
2009,04,04,05,02,-0.10
2009,04,04,05,03,-0.10
2009,04,04,05,04,-0.10
2009,04,04,05,05,-0.10
2009,04,04,05,06,-0.10
2009,04,04,05,07,-0.10
2009,04,04,05,08,-0.10
2009,04,04,05,09,-0.10
2009,04,04,05,10,-0.10
2009,04,04,05,11,-0.10
2009,04,04,05,12,-0.10
2009,04,04,05,13,-0.10
2009,04,04,05,14,-0.10
2009,04,04,05,15,0.00
2009,04,04,05,16,0.10
2009,04,04,05,17,0.10
2009,04,04,05,18,0.20
2009,04,04,05,19,0.20
2009,04,04,05,20,0.20
2009,04,04,05,21,0.30
2009,04,04,05,22,0.40
2009,04,04,05,23,0.50
2009,04,04,05,24,0.50
2009,04,04,05,25,0.50
2009,04,04,05,26,0.50
2009,04,04,05,27,0.40
2009,04,04,05,28,0.40
2009,04,04,05,29,0.40
2009,04,04,05,30,0.40
2009,04,04,05,31,0.40
2009,04,04,05,32,0.40
2009,04,04,05,33,0.40
2009,04,04,05,34,0.40
2009,04,04,05,35,0.40
2009,04,04,05,36,0.40
2009,04,04,05,37,0.40
2009,04,04,05,38,0.50
2009,04,04,05,39,0.50
2009,04,04,05,40,0.50
2009,04,04,05,41,0.50
2009,04,04,05,42,0.60
2009,04,04,05,43,0.70
2009,04,04,05,44,0.80
2009,04,04,05,45,0.80
2009,04,04,05,46,0.80
2009,04,04,05,47,0.90
2009,04,04,05,48,1.00
2009,04,04,05,49,1.00
2009,04,04,05,50,1.10
2009,04,04,05,51,1.10
2009,04,04,05,52,1.20
2009,04,04,05,53,1.20
2009,04,04,05,54,1.30
2009,04,04,05,55,1.30
2009,04,04,05,56,1.30
2009,04,04,05,57,1.30
2009,04,04,05,58,1.40
2009,04,04,05,59,1.40
2009,04,04,06,00,1.50
2009,04,04,06,01,1.50
2009,04,04,06,02,1.50
2009,04,04,06,03,1.50
2009,04,04,06,04,1.60
2009,04,04,06,05,1.70
2009,04,04,06,06,1.80
2009,04,04,06,07,1.80
2009,04,04,06,08,1.90
2009,04,04,06,09,1.90
2009,04,04,06,10,1.90
2009,04,04,06,11,1.90
2009,04,04,06,12,1.80
2009,04,04,06,13,1.80
2009,04,04,06,14,1.80
2009,04,04,06,15,1.80
2009,04,04,06,16,1.80
2009,04,04,06,17,1.80
2009,04,04,06,18,1.80
2009,04,04,06,19,1.80
2009,04,04,06,20,1.80
2009,04,04,06,21,1.80
2009,04,04,06,22,1.80
2009,04,04,06,23,1.70
2009,04,04,06,24,1.70
2009,04,04,06,25,1.70
2009,04,04,06,26,1.80
2009,04,04,06,27,1.70
2009,04,04,06,28,1.60
2009,04,04,06,29,1.60
2009,04,04,06,30,1.50
2009,04,04,06,31,1.50
2009,04,04,06,32,1.40
2009,04,04,06,33,1.50
2009,04,04,06,34,1.50
2009,04,04,06,35,1.60
2009,04,04,06,36,1.60
2009,04,04,06,37,1.60
2009,04,04,06,38,1.60
2009,04,04,06,39,1.60
2009,04,04,06,40,1.60
2009,04,04,06,41,1.60
2009,04,04,06,42,1.60
2009,04,04,06,43,1.60
2009,04,04,06,44,1.70
2009,04,04,06,45,1.70
2009,04,04,06,46,1.70
2009,04,04,06,47,1.70
2009,04,04,06,48,1.80
2009,04,04,06,49,1.80
2009,04,04,06,50,1.80
2009,04,04,06,51,1.80
2009,04,04,06,52,1.80
2009,04,04,06,53,1.90
2009,04,04,06,54,1.90
2009,04,04,06,55,2.00
2009,04,04,06,56,2.00
2009,04,04,06,57,2.10
2009,04,04,06,58,2.10
2009,04,04,06,59,2.10
2009,04,04,07,00,2.10
2009,04,04,07,01,2.10
2009,04,04,07,02,2.10
2009,04,04,07,03,2.10
2009,04,04,07,04,2.10
2009,04,04,07,05,2.10
2009,04,04,07,06,2.20
2009,04,04,07,07,2.20
2009,04,04,07,08,2.20
2009,04,04,07,09,2.30
2009,04,04,07,10,2.30
2009,04,04,07,11,2.30
2009,04,04,07,12,2.30
2009,04,04,07,13,2.40
2009,04,04,07,14,2.40
2009,04,04,07,15,2.50
2009,04,04,07,16,2.50
2009,04,04,07,17,2.50
2009,04,04,07,18,2.50
2009,04,04,07,19,2.50
2009,04,04,07,20,2.50
2009,04,04,07,21,2.50
2009,04,04,07,22,2.50
2009,04,04,07,23,2.60
2009,04,04,07,24,2.60
2009,04,04,07,25,2.60
2009,04,04,07,26,2.60
2009,04,04,07,27,2.70
2009,04,04,07,28,2.70
2009,04,04,07,29,2.80
2009,04,04,07,30,2.80
2009,04,04,07,31,2.80
2009,04,04,07,32,2.80
2009,04,04,07,33,2.80
2009,04,04,07,34,2.80
2009,04,04,07,35,2.80
2009,04,04,07,36,2.80
2009,04,04,07,37,2.80
2009,04,04,07,38,2.80
2009,04,04,07,39,2.80
2009,04,04,07,40,2.80
2009,04,04,07,41,2.80
2009,04,04,07,42,2.90
2009,04,04,07,43,2.90
2009,04,04,07,44,2.90
2009,04,04,07,45,2.90
2009,04,04,07,46,2.90
2009,04,04,07,47,2.90
2009,04,04,07,48,2.90
2009,04,04,07,49,2.90
2009,04,04,07,50,2.90
2009,04,04,07,51,2.90
2009,04,04,07,52,2.90
2009,04,04,07,53,2.90
2009,04,04,07,54,2.90
2009,04,04,07,55,2.90
2009,04,04,07,56,2.90
2009,04,04,07,57,2.90
2009,04,04,07,58,2.90
2009,04,04,07,59,2.90
2009,04,04,08,00,2.90
2009,04,04,08,01,2.90
2009,04,04,08,02,2.80
2009,04,04,08,03,2.80
2009,04,04,08,04,2.80
2009,04,04,08,05,2.80
2009,04,04,08,06,2.80
2009,04,04,08,07,2.70
2009,04,04,08,08,2.70
2009,04,04,08,09,2.70
2009,04,04,08,10,2.70
2009,04,04,08,11,2.70
2009,04,04,08,12,2.70
2009,04,04,08,13,2.70
2009,04,04,08,14,2.70
2009,04,04,08,15,2.70
2009,04,04,08,16,2.70
2009,04,04,08,17,2.80
2009,04,04,08,18,2.80
2009,04,04,08,19,2.80
2009,04,04,08,20,2.80
2009,04,04,08,21,2.80
2009,04,04,08,22,2.90
2009,04,04,08,23,2.90
2009,04,04,08,24,2.90
2009,04,04,08,25,2.90
2009,04,04,08,26,3.00
2009,04,04,08,27,3.10
2009,04,04,08,28,3.10
2009,04,04,08,29,3.10
2009,04,04,08,30,3.10
2009,04,04,08,31,3.10
2009,04,04,08,32,3.20
2009,04,04,08,33,3.20
2009,04,04,08,34,3.20
2009,04,04,08,35,3.20
2009,04,04,08,36,3.30
2009,04,04,08,37,3.30
2009,04,04,08,38,3.30
2009,04,04,08,39,3.30
2009,04,04,08,40,3.30
2009,04,04,08,41,3.30
2009,04,04,08,42,3.40
2009,04,04,08,43,3.40
2009,04,04,08,44,3.40
2009,04,04,08,45,3.50
2009,04,04,08,46,3.50
2009,04,04,08,47,3.50
2009,04,04,08,48,3.50
2009,04,04,08,49,3.60
2009,04,04,08,50,3.60
2009,04,04,08,51,3.60
2009,04,04,08,52,3.60
2009,04,04,08,53,3.70
2009,04,04,08,54,3.70
2009,04,04,08,55,3.70
2009,04,04,08,56,3.70
2009,04,04,08,57,3.70
2009,04,04,08,58,3.80
2009,04,04,08,59,3.80
2009,04,04,09,00,3.80
2009,04,04,09,01,3.80
2009,04,04,09,02,3.80
2009,04,04,09,03,3.80
2009,04,04,09,04,3.80
2009,04,04,09,05,3.90
2009,04,04,09,06,3.90
2009,04,04,09,07,3.90
2009,04,04,09,08,4.00
2009,04,04,09,09,4.00
2009,04,04,09,10,4.00
2009,04,04,09,11,4.00
2009,04,04,09,12,4.10
2009,04,04,09,13,4.10
2009,04,04,09,14,4.10
2009,04,04,09,15,4.10
2009,04,04,09,16,4.20
2009,04,04,09,17,4.20
2009,04,04,09,18,4.20
2009,04,04,09,19,4.30
2009,04,04,09,20,4.40
2009,04,04,09,21,4.40
2009,04,04,09,22,4.50
2009,04,04,09,23,4.50
2009,04,04,09,24,4.50
2009,04,04,09,25,4.50
2009,04,04,09,26,4.50
2009,04,04,09,27,4.60
2009,04,04,09,28,4.60
2009,04,04,09,29,4.60
2009,04,04,09,30,4.60
2009,04,04,09,31,4.60
2009,04,04,09,32,4.70
2009,04,04,09,33,4.70
2009,04,04,09,34,4.70
2009,04,04,09,35,4.80
2009,04,04,09,36,4.80
2009,04,04,09,37,4.80
2009,04,04,09,38,4.70
2009,04,04,09,39,4.70
2009,04,04,09,40,4.80
2009,04,04,09,41,4.80
2009,04,04,09,42,4.80
2009,04,04,09,43,4.80
2009,04,04,09,44,4.80
2009,04,04,09,45,4.80
2009,04,04,09,46,4.80
2009,04,04,09,47,4.90
2009,04,04,09,48,4.90
2009,04,04,09,49,4.90
2009,04,04,09,50,4.90
2009,04,04,09,51,4.90
2009,04,04,09,52,5.00
2009,04,04,09,53,5.10
2009,04,04,09,54,5.10
2009,04,04,09,55,5.10
2009,04,04,09,56,5.10
2009,04,04,09,57,5.10
2009,04,04,09,58,5.10
2009,04,04,09,59,5.10
2009,04,04,10,00,5.10
2009,04,04,10,01,5.10
2009,04,04,10,02,5.20
2009,04,04,10,03,5.20
2009,04,04,10,04,5.30
2009,04,04,10,05,5.30
2009,04,04,10,06,5.30
2009,04,04,10,07,5.40
2009,04,04,10,08,5.40
2009,04,04,10,09,5.40
2009,04,04,10,10,5.40
2009,04,04,10,11,5.50
2009,04,04,10,12,5.50
2009,04,04,10,13,5.60
2009,04,04,10,14,5.70
2009,04,04,10,15,5.70
2009,04,04,10,16,5.70
2009,04,04,10,17,5.80
2009,04,04,10,18,5.90
2009,04,04,10,19,5.90
2009,04,04,10,20,5.90
2009,04,04,10,21,5.90
2009,04,04,10,22,5.90
2009,04,04,10,23,5.90
2009,04,04,10,24,5.90
2009,04,04,10,25,5.90
2009,04,04,10,26,5.90
2009,04,04,10,27,5.80
2009,04,04,10,28,5.70
2009,04,04,10,29,5.70
2009,04,04,10,30,5.60
2009,04,04,10,31,5.60
2009,04,04,10,32,5.70
2009,04,04,10,33,5.70
2009,04,04,10,34,5.70
2009,04,04,10,35,5.70
2009,04,04,10,36,5.70
2009,04,04,10,37,5.70
2009,04,04,10,38,5.80
2009,04,04,10,39,5.90
2009,04,04,10,40,5.90
2009,04,04,10,41,5.90
2009,04,04,10,42,6.00
2009,04,04,10,43,6.00
2009,04,04,10,44,6.00
2009,04,04,10,45,5.90
2009,04,04,10,46,5.80
2009,04,04,10,47,5.90
2009,04,04,10,48,6.10
2009,04,04,10,49,6.20
2009,04,04,10,50,6.30
2009,04,04,10,51,6.30
2009,04,04,10,52,6.30
2009,04,04,10,53,6.40
2009,04,04,10,54,6.40
2009,04,04,10,55,6.40
2009,04,04,10,56,6.30
2009,04,04,10,57,6.30
2009,04,04,10,58,6.40
2009,04,04,10,59,6.40
2009,04,04,11,00,6.30
2009,04,04,11,01,6.30
2009,04,04,11,02,6.40
2009,04,04,11,03,6.40
2009,04,04,11,04,6.40
2009,04,04,11,05,6.50
2009,04,04,11,06,6.60
2009,04,04,11,07,6.60
2009,04,04,11,08,6.60
2009,04,04,11,09,6.60
2009,04,04,11,10,6.60
2009,04,04,11,11,6.60
2009,04,04,11,12,6.50
2009,04,04,11,13,6.40
2009,04,04,11,14,6.40
2009,04,04,11,15,6.40
2009,04,04,11,16,6.30
2009,04,04,11,17,6.30
2009,04,04,11,18,6.30
2009,04,04,11,19,6.30
2009,04,04,11,20,6.30
2009,04,04,11,21,6.30
2009,04,04,11,22,6.20
2009,04,04,11,23,6.20
2009,04,04,11,24,6.20
2009,04,04,11,25,6.20
2009,04,04,11,26,6.20
2009,04,04,11,27,6.20
2009,04,04,11,28,6.30
2009,04,04,11,29,6.30
2009,04,04,11,30,6.30
2009,04,04,11,31,6.40
2009,04,04,11,32,6.40
2009,04,04,11,33,6.50
2009,04,04,11,34,6.60
2009,04,04,11,35,6.60
2009,04,04,11,36,6.60
2009,04,04,11,37,6.60
2009,04,04,11,38,6.60
2009,04,04,11,39,6.60
2009,04,04,11,40,6.60
2009,04,04,11,41,6.70
2009,04,04,11,42,6.70
2009,04,04,11,43,6.60
2009,04,04,11,44,6.50
2009,04,04,11,45,6.50
2009,04,04,11,46,6.60
2009,04,04,11,47,6.60
2009,04,04,11,48,6.70
2009,04,04,11,49,6.80
2009,04,04,11,50,6.90
2009,04,04,11,51,7.00
2009,04,04,11,52,7.00
2009,04,04,11,53,7.00
2009,04,04,11,54,7.00
2009,04,04,11,55,7.00
2009,04,04,11,56,7.00
2009,04,04,11,57,7.00
2009,04,04,11,58,7.10
2009,04,04,11,59,7.10
2009,04,04,12,00,7.10
2009,04,04,12,01,7.20
2009,04,04,12,02,7.30
2009,04,04,12,03,7.40
2009,04,04,12,04,7.30
2009,04,04,12,05,7.30
2009,04,04,12,06,7.30
2009,04,04,12,07,7.40
2009,04,04,12,08,7.50
2009,04,04,12,09,7.50
2009,04,04,12,10,7.50
2009,04,04,12,11,7.50
2009,04,04,12,12,7.50
2009,04,04,12,13,7.50
2009,04,04,12,14,7.50
2009,04,04,12,15,7.50
2009,04,04,12,16,7.50
2009,04,04,12,17,7.60
2009,04,04,12,18,7.60
2009,04,04,12,19,7.70
2009,04,04,12,20,7.70
2009,04,04,12,21,7.70
2009,04,04,12,22,7.80
2009,04,04,12,23,7.80
2009,04,04,12,24,7.80
2009,04,04,12,25,7.80
2009,04,04,12,26,7.90
2009,04,04,12,27,7.90
2009,04,04,12,28,7.80
2009,04,04,12,29,7.70
2009,04,04,12,30,7.70
2009,04,04,12,31,7.80
2009,04,04,12,32,7.80
2009,04,04,12,33,7.80
2009,04,04,12,34,7.80
2009,04,04,12,35,7.80
2009,04,04,12,36,7.80
2009,04,04,12,37,7.80
2009,04,04,12,38,7.70
2009,04,04,12,39,7.70
2009,04,04,12,40,7.80
2009,04,04,12,41,7.80
2009,04,04,12,42,7.80
2009,04,04,12,43,7.80
2009,04,04,12,44,7.70
2009,04,04,12,45,7.70
2009,04,04,12,46,7.80
2009,04,04,12,47,7.70
2009,04,04,12,48,7.80
2009,04,04,12,49,7.90
2009,04,04,12,50,8.00
2009,04,04,12,51,7.90
2009,04,04,12,52,7.80
2009,04,04,12,53,7.80
2009,04,04,12,54,7.70
2009,04,04,12,55,7.60
2009,04,04,12,56,7.70
2009,04,04,12,57,7.80
2009,04,04,12,58,7.70
2009,04,04,12,59,7.60
2009,04,04,13,00,7.60
2009,04,04,13,01,7.60
2009,04,04,13,02,7.70
2009,04,04,13,03,7.80
2009,04,04,13,04,7.90
2009,04,04,13,05,8.00
2009,04,04,13,06,8.10
2009,04,04,13,07,8.10
2009,04,04,13,08,8.00
2009,04,04,13,09,8.10
2009,04,04,13,10,8.10
2009,04,04,13,11,8.00
2009,04,04,13,12,8.00
2009,04,04,13,13,7.90
2009,04,04,13,14,7.80
2009,04,04,13,15,7.90
2009,04,04,13,16,7.90
2009,04,04,13,17,8.00
2009,04,04,13,18,8.00
2009,04,04,13,19,8.10
2009,04,04,13,20,8.10
2009,04,04,13,21,8.10
2009,04,04,13,22,8.00
2009,04,04,13,23,8.00
2009,04,04,13,24,8.10
2009,04,04,13,25,8.20
2009,04,04,13,26,8.30
2009,04,04,13,27,8.20
2009,04,04,13,28,8.20
2009,04,04,13,29,8.20
2009,04,04,13,30,8.10
2009,04,04,13,31,8.20
2009,04,04,13,32,8.20
2009,04,04,13,33,8.20
2009,04,04,13,34,8.20
2009,04,04,13,35,8.20
2009,04,04,13,36,8.20
2009,04,04,13,37,8.20
2009,04,04,13,38,8.20
2009,04,04,13,39,8.30
2009,04,04,13,40,8.40
2009,04,04,13,41,8.50
2009,04,04,13,42,8.50
2009,04,04,13,43,8.50
2009,04,04,13,44,8.60
2009,04,04,13,45,8.70
2009,04,04,13,46,8.70
2009,04,04,13,47,8.70
2009,04,04,13,48,8.70
2009,04,04,13,49,8.70
2009,04,04,13,50,8.70
2009,04,04,13,51,8.70
2009,04,04,13,52,8.70
2009,04,04,13,53,8.70
2009,04,04,13,54,8.70
2009,04,04,13,55,8.80
2009,04,04,13,56,8.90
2009,04,04,13,57,8.90
2009,04,04,13,58,9.00
2009,04,04,13,59,9.10
2009,04,04,14,00,9.10
2009,04,04,14,01,9.10
2009,04,04,14,02,9.10
2009,04,04,14,03,9.10
2009,04,04,14,04,9.10
2009,04,04,14,05,9.10
2009,04,04,14,06,9.10
2009,04,04,14,07,8.90
2009,04,04,14,08,8.80
2009,04,04,14,09,8.80
2009,04,04,14,10,8.90
2009,04,04,14,11,9.00
2009,04,04,14,12,9.20
2009,04,04,14,13,9.40
2009,04,04,14,14,9.40
2009,04,04,14,15,9.50
2009,04,04,14,16,9.50
2009,04,04,14,17,9.60
2009,04,04,14,18,9.60
2009,04,04,14,19,9.60
2009,04,04,14,20,9.70
2009,04,04,14,21,9.70
2009,04,04,14,22,9.70
2009,04,04,14,23,9.80
2009,04,04,14,24,9.80
2009,04,04,14,25,9.80
2009,04,04,14,26,9.80
2009,04,04,14,27,9.80
2009,04,04,14,28,9.80
2009,04,04,14,29,9.80
2009,04,04,14,30,9.90
2009,04,04,14,31,9.90
2009,04,04,14,32,10.10
2009,04,04,14,33,10.10
2009,04,04,14,34,10.10
2009,04,04,14,35,10.10
2009,04,04,14,36,10.10
2009,04,04,14,37,10.10
2009,04,04,14,38,10.10
2009,04,04,14,39,10.10
2009,04,04,14,40,10.10
2009,04,04,14,41,10.10
2009,04,04,14,42,10.00
2009,04,04,14,43,9.90
2009,04,04,14,44,9.80
2009,04,04,14,45,9.80
2009,04,04,14,46,9.80
2009,04,04,14,47,9.80
2009,04,04,14,48,9.90
2009,04,04,14,49,9.90
2009,04,04,14,50,9.90
2009,04,04,14,51,9.80
2009,04,04,14,52,9.70
2009,04,04,14,53,9.70
2009,04,04,14,54,9.90
2009,04,04,14,55,9.80
2009,04,04,14,56,9.70
2009,04,04,14,57,9.60
2009,04,04,14,58,9.50
2009,04,04,14,59,9.50
2009,04,04,15,00,9.50
2009,04,04,15,01,9.50
2009,04,04,15,02,9.50
2009,04,04,15,03,9.50
2009,04,04,15,04,9.50
2009,04,04,15,05,9.60
2009,04,04,15,06,9.70
2009,04,04,15,07,9.70
2009,04,04,15,08,9.70
2009,04,04,15,09,9.70
2009,04,04,15,10,9.70
2009,04,04,15,11,9.70
2009,04,04,15,12,9.70
2009,04,04,15,13,9.70
2009,04,04,15,14,9.70
2009,04,04,15,15,9.70
2009,04,04,15,16,9.70
2009,04,04,15,17,9.60
2009,04,04,15,18,9.70
2009,04,04,15,19,9.70
2009,04,04,15,20,9.70
2009,04,04,15,21,9.60
2009,04,04,15,22,9.50
2009,04,04,15,23,9.40
2009,04,04,15,24,9.30
2009,04,04,15,25,9.30
2009,04,04,15,26,9.30
2009,04,04,15,27,9.40
2009,04,04,15,28,9.40
2009,04,04,15,29,9.40
2009,04,04,15,30,9.50
2009,04,04,15,31,9.60
2009,04,04,15,32,9.40
2009,04,04,15,33,9.40
2009,04,04,15,34,9.30
2009,04,04,15,35,9.30
2009,04,04,15,36,9.40
2009,04,04,15,37,9.50
2009,04,04,15,38,9.50
2009,04,04,15,39,9.60
2009,04,04,15,40,9.60
2009,04,04,15,41,9.70
2009,04,04,15,42,9.70
2009,04,04,15,43,9.80
2009,04,04,15,44,9.80
2009,04,04,15,45,9.90
2009,04,04,15,46,9.80
2009,04,04,15,47,9.90
2009,04,04,15,48,9.80
2009,04,04,15,49,9.70
2009,04,04,15,50,9.70
2009,04,04,15,51,9.70
2009,04,04,15,52,9.70
2009,04,04,15,53,9.70
2009,04,04,15,54,9.80
2009,04,04,15,55,9.90
2009,04,04,15,56,9.90
2009,04,04,15,57,9.90
2009,04,04,15,58,9.90
2009,04,04,15,59,9.90
2009,04,04,16,00,9.90
2009,04,04,16,01,9.90
2009,04,04,16,02,9.90
2009,04,04,16,03,9.90
2009,04,04,16,04,10.00
2009,04,04,16,05,10.10
2009,04,04,16,06,10.00
2009,04,04,16,07,9.90
2009,04,04,16,08,9.90
2009,04,04,16,09,9.90
2009,04,04,16,10,9.90
2009,04,04,16,11,9.90
2009,04,04,16,12,9.90
2009,04,04,16,13,9.90
2009,04,04,16,14,9.90
2009,04,04,16,15,10.00
2009,04,04,16,16,10.10
2009,04,04,16,17,10.10
2009,04,04,16,18,10.10
2009,04,04,16,19,10.10
2009,04,04,16,20,10.10
2009,04,04,16,21,10.20
2009,04,04,16,22,10.30
2009,04,04,16,23,10.30
2009,04,04,16,24,10.40
2009,04,04,16,25,10.40
2009,04,04,16,26,10.40
2009,04,04,16,27,10.30
2009,04,04,16,28,10.30
2009,04,04,16,29,10.20
2009,04,04,16,30,10.20
2009,04,04,16,31,10.20
2009,04,04,16,32,10.20
2009,04,04,16,33,10.10
2009,04,04,16,34,10.10
2009,04,04,16,35,10.10
2009,04,04,16,36,10.10
2009,04,04,16,37,10.10
2009,04,04,16,38,10.10
2009,04,04,16,39,10.10
2009,04,04,16,40,10.10
2009,04,04,16,41,10.10
2009,04,04,16,42,10.10
2009,04,04,16,43,10.10
2009,04,04,16,44,10.20
2009,04,04,16,45,10.20
2009,04,04,16,46,10.20
2009,04,04,16,47,10.30
2009,04,04,16,48,10.40
2009,04,04,16,49,10.40
2009,04,04,16,50,10.40
2009,04,04,16,51,10.40
2009,04,04,16,52,10.40
2009,04,04,16,53,10.40
2009,04,04,16,54,10.40
2009,04,04,16,55,10.40
2009,04,04,16,56,10.40
2009,04,04,16,57,10.40
2009,04,04,16,58,10.40
2009,04,04,16,59,10.30
2009,04,04,17,00,10.20
2009,04,04,17,01,10.10
2009,04,04,17,02,10.10
2009,04,04,17,03,10.10
2009,04,04,17,04,10.00
2009,04,04,17,05,9.90
2009,04,04,17,06,9.90
2009,04,04,17,07,9.90
2009,04,04,17,08,9.80
2009,04,04,17,09,9.80
2009,04,04,17,10,9.80
2009,04,04,17,11,9.80
2009,04,04,17,12,9.80
2009,04,04,17,13,9.90
2009,04,04,17,14,9.90
2009,04,04,17,15,9.90
2009,04,04,17,16,9.90
2009,04,04,17,17,9.90
2009,04,04,17,18,9.90
2009,04,04,17,19,9.90
2009,04,04,17,20,10.00
2009,04,04,17,21,9.90
2009,04,04,17,22,9.90
2009,04,04,17,23,9.90
2009,04,04,17,24,9.90
2009,04,04,17,25,9.90
2009,04,04,17,26,9.90
2009,04,04,17,27,9.90
2009,04,04,17,28,9.90
2009,04,04,17,29,9.90
2009,04,04,17,30,9.90
2009,04,04,17,31,9.90
2009,04,04,17,32,9.90
2009,04,04,17,33,9.90
2009,04,04,17,34,9.90
2009,04,04,17,35,9.90
2009,04,04,17,36,9.90
2009,04,04,17,37,9.90
2009,04,04,17,38,9.80
2009,04,04,17,39,9.80
2009,04,04,17,40,9.80
2009,04,04,17,41,9.80
2009,04,04,17,42,9.80
2009,04,04,17,43,9.90
2009,04,04,17,44,9.90
2009,04,04,17,45,9.90
2009,04,04,17,46,9.90
2009,04,04,17,47,9.80
2009,04,04,17,48,9.80
2009,04,04,17,49,9.70
2009,04,04,17,50,9.70
2009,04,04,17,51,9.80
2009,04,04,17,52,9.80
2009,04,04,17,53,9.80
2009,04,04,17,54,9.80
2009,04,04,17,55,9.80
2009,04,04,17,56,9.80
2009,04,04,17,57,9.80
2009,04,04,17,58,9.80
2009,04,04,17,59,9.80
2009,04,04,18,00,9.80
2009,04,04,18,01,9.80